GW1707 Weather Reports


Display with metric or nautical units.
time (UTC)temp
F
wind
direction
speed
MPH
gust
MPH
rain 1hr
in
rain 24hr
in
rain mn
in
humidity
%
barometer
mb
20260509171552 51 0 0.0 0.0 0.00 0.12 0.01 98 1030.0
20260509170100 51 0 0.0 0.0 0.00 0.12 0.01 98 1030.0
20260509164554 51 0 0.0 0.0 0.00 0.12 0.01 98 1030.2
20260509163106 50 0 0.0 0.0 0.00 0.12 0.01 98 1030.3
20260509161552 50 0 0.0 0.0 0.00 0.12 0.01 98 1030.3
20260509160057 50 0 0.0 0.0 0.00 0.11 0.00 98 1030.5
20260509154558 50 0 0.0 0.0 0.00 0.11 0.00 98 1030.5
20260509153058 51 0 0.0 0.0 0.00 0.11 0.00 98 1030.5
20260509151556 51 0 0.0 0.0 0.00 0.11 0.00 98 1030.6
20260509150055 51 0 0.0 0.0 0.01 0.11 0.00 98 1030.7
20260509144555 51 0 0.0 0.0 0.00 0.11 0.00 98 1030.7
20260509143055 51 0 0.0 0.0 0.00 0.11 0.00 98 1030.8
20260509141600 51 0 0.0 0.0 0.01 0.11 0.11 98 1030.8
20260509134551 51 0 0.0 0.0 0.02 0.11 0.10 98 1030.6
20260509133054 51 0 0.0 0.0 0.02 0.11 0.10 98 1030.7
20260509131551 51 0 0.0 0.0 0.01 0.10 0.09 98 1030.7
20260509130051 52 0 0.0 0.0 0.00 0.09 0.08 98 1031.0
20260509124558 52 0 0.0 0.0 0.00 0.08 0.07 98 1031.1
20260509123056 51 0 0.0 0.0 0.00 0.08 0.07 98 1031.0
20260509121552 51 0 0.0 0.0 0.00 0.09 0.07 98 1031.0
20260509120055 51 0 0.0 0.0 0.00 0.09 0.07 98 1031.0
20260509114554 51 0 0.0 0.0 0.00 0.09 0.07 98 1030.8
20260509113113 51 0 0.0 0.0 0.00 0.09 0.07 98 1030.7
20260509111600 51 0 0.0 0.0 0.00 0.10 0.07 98 1030.8
20260509110052 51 0 0.0 0.0 0.00 0.10 0.07 98 1030.9
20260509104559 51 0 0.0 0.0 0.00 0.10 0.07 98 1030.9
20260509103059 51 0 0.0 0.0 0.00 0.10 0.07 98 1030.9
20260509101551 51 0 0.0 0.0 0.00 0.10 0.07 98 1031.0
20260509100108 51 0 0.0 0.0 0.00 0.10 0.07 98 1031.0
20260509094556 51 0 0.0 0.0 0.00 0.10 0.07 98 1031.1
20260509093101 52 0 0.0 0.0 0.00 0.10 0.07 98 1031.0
20260509091603 52 0 0.0 0.0 0.00 0.10 0.07 98 1030.9
20260509090054 52 0 0.0 0.0 0.00 0.10 0.07 98 1031.1
20260509084553 51 0 0.0 0.0 0.00 0.10 0.07 98 1031.0
20260509083056 52 0 0.0 0.0 0.00 0.10 0.07 98 1030.9
20260509081558 52 0 0.0 0.0 0.00 0.10 0.07 98 1030.8
20260509080057 52 0 0.0 0.0 0.00 0.10 0.07 98 1030.7
20260509074555 52 0 0.0 0.0 0.00 0.10 0.07 98 1030.6
20260509073104 53 0 0.0 0.0 0.00 0.10 0.07 98 1030.6
20260509071557 53 0 0.0 0.0 0.00 0.10 0.07 98 1030.4
20260509070059 53 0 0.0 0.0 0.00 0.10 0.07 98 1030.3
20260509064557 53 0 0.0 0.0 0.00 0.10 0.07 98 1030.3
20260509063104 53 0 0.0 0.0 0.00 0.10 0.07 98 1030.2
20260509061611 54 0 0.0 0.0 0.00 0.09 0.07 98 1030.2
20260509060058 54 0 0.0 0.0 0.00 0.09 0.07 98 1030.2
20260509054605 54 0 0.0 0.0 0.00 0.09 0.07 98 1030.3
20260509053101 55 0 0.0 0.0 0.00 0.09 0.07 98 1030.3
20260509051556 55 0 0.0 0.0 0.00 0.09 0.07 98 1030.3
20260509050057 55 0 0.0 0.0 0.00 0.08 0.06 98 1030.3
20260509044557 55 0 0.0 0.0 0.00 0.08 0.06 98 1030.3
20260509043101 54 0 0.0 0.0 0.00 0.08 0.06 98 1030.2
20260509041556 55 0 0.0 0.0 0.01 0.08 0.06 98 1030.3
20260509040057 55 0 0.0 0.0 0.01 0.08 0.06 98 1030.3
20260509034559 55 0 0.0 0.0 0.01 0.08 0.06 98 1030.4
20260509033056 55 0 0.0 0.0 0.01 0.08 0.06 98 1030.7
20260509031555 56 0 0.0 0.0 0.00 0.07 0.04 98 1030.8
20260509030052 56 0 0.0 0.0 0.00 0.07 0.04 98 1031.1
20260509024553 56 0 0.0 0.0 0.00 0.07 0.04 98 1031.2
20260509023050 55 0 0.0 0.0 0.00 0.07 0.04 98 1031.6
20260509021555 56 0 0.0 0.0 0.00 0.09 0.04 98 1032.0
20260509020053 55 0 0.0 0.0 0.00 0.09 0.04 98 1032.1
20260509014554 55 0 0.0 0.0 0.00 0.09 0.04 98 1032.2
20260509013051 55 0 0.0 0.0 0.01 0.09 0.04 98 1032.3
20260509011553 54 0 0.0 0.0 0.01 0.09 0.04 98 1032.3
20260509010054 54 0 0.0 0.0 0.01 0.09 0.04 98 1032.3
20260509004554 54 0 0.0 0.0 0.02 0.09 0.04 98 1032.3
20260509003106 54 0 0.0 0.0 0.00 0.07 0.03 98 1032.4
20260509001556 54 0 0.0 0.0 0.00 0.07 0.03 98 1032.4
20260509000056 53 0 0.0 0.0 0.00 0.07 0.03 98 1032.3
20260508234557 53 0 0.0 0.0 0.00 0.07 0.02 98 1032.3
20260508233105 53 0 0.0 0.0 0.00 0.07 0.02 98 1032.4
20260508231634 53 0 0.0 0.0 0.00 0.07 0.02 98 1032.3
20260508224608 52 0 0.0 0.0 0.00 0.07 0.02 98 1032.0
20260508223054 52 0 0.0 0.0 0.00 0.07 0.02 98 1031.9
20260508221555 52 0 0.0 0.0 0.00 0.07 0.02 98 1031.8
20260508214624 51 0 0.0 0.0 0.00 0.07 0.02 98 1031.4
20260508213053 52 0 0.0 0.0 0.00 0.06 0.01 98 1031.3
20260508211556 51 0 0.0 0.0 0.00 0.06 0.01 98 1031.2
20260508210057 51 0 0.0 0.0 0.00 0.06 0.01 98 1031.2
20260508204555 51 0 0.0 0.0 0.00 0.06 0.01 98 1031.1
20260508203115 51 0 0.0 0.0 0.00 0.06 0.01 98 1031.0
20260508201558 51 0 0.0 0.0 0.00 0.06 0.01 98 1030.9
20260508200103 51 0 0.0 0.0 0.00 0.06 0.01 98 1030.9
20260508194557 51 0 0.0 0.0 0.00 0.05 0.00 98 1030.7
20260508193137 51 0 0.0 0.0 0.00 0.05 0.00 98 1030.7
20260508191559 51 0 0.0 0.0 0.00 0.05 0.00 98 1030.5
20260508190057 51 0 0.0 0.0 0.00 0.05 0.00 98 1030.5
20260508184559 51 0 0.0 0.0 0.00 0.05 0.00 98 1030.5
20260508183102 51 0 0.0 0.0 0.00 0.05 0.00 98 1030.5
20260508181557 51 0 0.0 0.0 0.00 0.05 0.00 98 1030.6
20260508180114 51 0 0.0 0.0 0.00 0.04 0.00 98 1030.7
20260508174611 51 0 0.0 0.0 0.00 0.04 0.00 98 1030.8
20260508173057 51 0 0.0 0.0 0.00 0.04 0.00 98 1030.9